Skip Page Navigation
NASA JPL Caltech
NASA Logo - Jet Propulsion Laboratory + View the NASA Portal
+ Center for Near-Earth Object Studies
JPL Home Earth Solar System Stars & Galaxies Technology
JPL Solar System Dynamics
BODIES ORBITS EPHEMERIDES TOOLS PHYSICAL DATA DISCOVERY FAQ SITE MAP
IMPORTANT: The SSD Announcement email list is now available. Major changes are coming in the near future, including possible hostname and/or URL changes. To be notified of such changes, subscribe to this email list.

Please visit this page for more details.


JPL Small-Body Database Browser
Search: [ help ]  
(2000 GM137)
Classification: Centaur          SPK-ID: 3031999
Ephemeris | Orbit Diagram | Orbital Elements | Mission Design | Physical Parameters | Close-Approach Data ]

[ show orbit diagram ]
Orbital Elements at Epoch 2459000.5 (2020-May-31.0) TDB
Reference: JPL 4 (heliocentric ecliptic J2000)
 Element Value Uncertainty (1-sigma)   Units 
e .1208866973501103 1.6656e-05  
a 7.854811998249303 9.872e-05 au
q 6.905269717474925 4.6651e-05 au
i 15.86433494487038 8.4853e-05 deg
node 89.65217635658303 0.00072093 deg
peri 124.3084526278769 0.010208 deg
M 297.8282546769414 0.013601 deg
tp 2460389.149613692758
(2024-Mar-19.64961369)
0.32995 TDB
period 8040.852936196747
22.01
0.15159
0.000415
d
yr
n .0447713697609643 8.4403e-07 deg/d
Q 8.804354279023682 0.00011065 au
  Orbit Determination Parameters
   # obs. used (total)      29  
   data-arc span      5316 days (14.55 yr)  
   first obs. used      2000-04-02  
   last obs. used      2014-10-22  
   planetary ephem.      DE431  
   SB-pert. ephem.      SB431-N16  
   condition code      3  
   norm. resid. RMS      .20088  
   source      ORB  
   producer      Otto Matic  
   solution date      2017-Apr-08 23:49:58  

Additional Information
 Earth MOID = 5.92704 au 
 Jupiter MOID = 1.76954 au 
 T_jup = 3.009 
[ show covariance matrix ]

Ephemeris | Orbit Diagram | Orbital Elements | Mission Design | Physical Parameters | Close-Approach Data ]

Physical Parameter Table
Parameter Symbol Value Units Sigma Reference Notes
absolute magnitude H 14.4   n/a MPO315178  

[ show close-approach data ]
Ephemeris | Orbit Diagram | Orbital Elements | Mission Design | Physical Parameters | Close-Approach Data ]
ABOUT SSD CREDITS/AWARDS PRIVACY/COPYRIGHT GLOSSARY LINKS
FirstGov 2020-Feb-18 07:39 UT
(server date/time)  
NASA Home Page
Site Manager:   Ryan S. Park
Webmaster  Alan B. Chamberlin